Simultaneous Nadir Overpasses (SNOs) Predictions

Prediction of SNOs over PacNW region [( 10.00, 139.50) to ( 22.70, 165.60)] between AQUA and NPP Satellites:

Table of predicted SNOs over PacNW region for the next 30.0 days since TLE Epoch: 9/21/2013
Index Date (AQUA) Time (AQUA) AQUA Lat,Lon Date (NPP) Time (NPP) NPP Lat,Lon Distance(km) Time Diff (sec)
1 09/26/2013 15:59:34 22.60, 147.41 09/26/2013 16:02:42 23.25, 144.51 305.83 188
2 10/04/2013 15:10:07 22.61, 159.77 10/04/2013 15:12:04 23.18, 157.18 272.91 117
3 10/07/2013 03:31:57 22.69, 147.45 10/07/2013 03:28:27 22.99, 145.60 192.06 210
4 10/12/2013 15:59:31 22.59, 147.42 10/12/2013 16:02:54 23.24, 144.51 306.26 203
5 10/15/2013 02:42:25 22.67, 159.83 10/15/2013 02:38:56 27.06, 157.25 553.06 209




NCC Satellite Simultaneous Nadir Overpasses (SNOs) Prediction Service
